Home > Weather > Ajmān > Past weeks

Flag for United Arab Emirates Past Weather in Ajmān, Ajman, United Arab Emirates — Yesterday and Last 2 Weeks

Now
108 °F

Passing clouds.


Feels Like: 105 °F
Forecast: 93 / 104 °F
Wind: 7 mph from South

Location: Sharjah International Airport

Current Time: Aug 29, 2016 at 11:33:11 AM

Latest Report: Aug 29, 2016 at 11:00 AM


Visibility: N/A

Pressure: 29.68 "Hg

Humidity: 15%

Dew Point: 50 °F

Location of AjmānLocation

Past Weather in Ajmān — Graph

°F

Ajmān Temperature Yesterday

Maximum temperature yesterday: 108 °F (at 3:00 PM)
Minimum temperature yesterday: 81 °F (at 6:00 AM)
Average temperature yesterday: 94 °F

High & Low Weather Summary for the Past Weeks

 TemperatureHumidityPressure
High115 °F (Aug 17, 3:00 PM)100% (Aug 28, 6:00 AM)29.71 "Hg (Aug 28, 6:00 AM)
Low79 °F (Aug 29, 6:00 AM)7% (Aug 18, 3:00 PM)29.39 "Hg (Aug 17, 3:00 PM)
Average96 °F41%29.56 "Hg
* Reported Aug 14 10:00 AM — Aug 29 10:00 AM, Ajmān, Weather by CustomWeather, © 2016

Note: Actual official high and low records may vary slightly from our data, if they occured in-between our weather recording intervals... More about our weather records

Advertising

Ajmān Weather History for the Previous 24 Hours

Scroll right to see more
 ConditionsComfort  
Time TempWeatherWind HumidityBarometerVisibility
10:00 AM
Mon, Aug 29
104 °FSunny.8 mph21%29.68 "Hg10 mi
9:00 AM99 °FClear.6 mph33%29.68 "HgN/A
8:00 AM91 °FSunny.7 mph41%29.68 "Hg10 mi
7:00 AM81 °FClear.3 mph51%29.65 "Hg5 mi
6:00 AM79 °FSunny.5 mph42%29.65 "Hg10 mi
5:00 AM81 °FClear.3 mph30%29.62 "Hg10 mi
4:00 AM82 °FClear.3 mph21%29.62 "Hg10 mi
3:00 AM84 °FClear.1 mph20%29.62 "Hg10 mi
2:00 AM84 °FClear.8 mph27%29.62 "Hg5 mi
1:00 AM84 °FClear.5 mph37%29.62 "Hg5 mi
12:00 AM88 °FClear.8 mph43%29.62 "Hg5 mi
11:00 PM
Sun, Aug 28
84 °FClear.3 mph66%29.62 "Hg5 mi
10:00 PM90 °FClear.No wind63%29.62 "Hg5 mi
9:00 PM93 °FClear.3 mph56%29.62 "Hg10 mi
8:00 PM95 °FClear.5 mph47%29.62 "Hg10 mi
7:00 PM99 °FClear.6 mph37%29.59 "Hg6 mi
6:00 PM102 °FSunny.10 mph37%29.59 "Hg10 mi
5:00 PM106 °FFog.13 mph20%29.59 "Hg6 mi
4:00 PM106 °FPassing clouds.15 mph23%29.56 "HgN/A
3:00 PM108 °FPassing clouds.14 mph23%29.59 "HgN/A
2:00 PM106 °FSunny.12 mph40%29.59 "Hg10 mi
1:00 PM106 °FSunny.17 mph40%29.62 "Hg10 mi
12:00 PM106 °FPassing clouds.5 mph43%29.65 "HgN/A
11:00 AM104 °FPassing clouds.2 mph38%29.65 "HgN/A
Weather by CustomWeather, © 2016

See weather overviewHow to use our weather pages